Regional Weather Roundup
Issued by NWS

Home | Current Version | Previous Version | Graphics & Text | Print | Product List | Glossary Off
Versions: 1 2 3 4 5 6 7 8 9 10 11 12 13 14 15 16 17 18 19 20 21 22 23 24 25 26 27 28 29 30 31 32 33 34 35 36 37 38 39 40 41 42 43 44 45 46 47 48 49 50

000
ASUS43 KTOP 262008
RWRKS

WEATHER ROUNDUP FOR KANSAS
NATIONAL WEATHER SERVICE GOODLAND KS
300 PM CDT TUE MAY 26 2015

NOTE:  "FAIR" INDICATES FEW OR NO CLOUDS BELOW 12,000 FEET WITH NO
SIGNIFICANT WEATHER AND/OR OBSTRUCTIONS TO VISIBILITY.

KSZ001>006-013>018-027>032-041>047-262100-
NORTHWEST KANSAS

CITY           SKY/WX    TMP DP  RH WIND       PRES   REMARKS
GOODLAND       PTSUNNY   71  51  49 N12       30.00F
HAYS           MOSUNNY   75  54  46 W14       29.95S
HILL CITY        N/A     75  55  49 NW13        N/A
RUSSELL        PTSUNNY   75  56  51 W13       29.93S
$$

KSZ061>065-074>080-084>089-262100-
SOUTHWEST KANSAS

CITY           SKY/WX    TMP DP  RH WIND       PRES   REMARKS
DODGE CITY     SUNNY     77  51  40 N9        29.97F
ELKHART          N/A    N/A N/A N/A MISG        N/A
GARDEN CITY    SUNNY     73  50  44 NW6       29.98S
GREAT BEND     MOSUNNY   73  55  53 NW8       29.94S
LIBERAL        SUNNY     75  54  46 E8        30.00S
PRATT          SUNNY     77  50  38 NW5       29.97S
$$

KSZ066>073-081>083-090>101-262100-
SOUTHEAST KANSAS

CITY           SKY/WX    TMP DP  RH WIND       PRES   REMARKS
CHANUTE        MOSUNNY   80  63  55 SW18G24   29.94F
COFFEYVILLE    MOSUNNY   77  65  66 S12       29.95
HUTCHINSON     SUNNY     80  55  42 MISG      29.94S
MEDICINE LODGE   N/A     83  55  38 NW6       29.92F
NEWTON         MOSUNNY   79  55  44 W7        29.96S
PARSONS        MOSUNNY   80  64  58 S13       29.96F
WICHITA INTL   PTSUNNY   80  57  45 W8        29.93F
WICHITA JABRA  MOSUNNY   78  56  46 W10       29.94S
WICHITA MCCONL MOSUNNY   79  58  48 SW7       29.94F
WINFIELD       MOSUNNY   79  61  53 SW8       29.95F
$$

KSZ007>012-019>026-033>040-048>060-102>105-262100-
NORTHEAST KANSAS

CITY           SKY/WX    TMP DP  RH WIND       PRES   REMARKS
CONCORDIA      MOSUNNY   73  55  53 NW12      29.90S
EMPORIA        PTSUNNY   77  57  50 W14       29.93R
LAWRENCE       MOSUNNY   77  58  51 W23G30    29.90R
MANHATTAN      MOSUNNY   74  59  59 W9        29.90R
MARYSVILLE     MOSUNNY   72  59  64 NW13      29.88R
OLATHE IND     PTSUNNY   76  59  55 SW20G28   29.91R
OLATHE EXE     PTSUNNY   76  58  53 SW17G29   29.89R
SALINA         MOSUNNY   78  56  46 NW12      29.92S
TOPEKA BILLARD PTSUNNY   77  59  53 SW15G21   29.89R
TOPEKA FORBES  MOSUNNY   78  58  49 W18       29.90R
$$


USA.gov is the U.S. government's official web portal to all federal, state and local government web resources and services.